TimePDT,TemperatureF,Dew PointF,Humidity,Sea Level PressureIn,VisibilityMPH,Wind Direction,Wind SpeedMPH,Gust SpeedMPH,PrecipitationIn,Events,Conditions,WindDirDegrees,DateUTC
12:52 AM,69.1,48.0,47,29.83,7.0,NW,9.2,-,N/A,,Clear,320,2012-11-02 07:52:00
1:52 AM,68.0,48.0,49,29.83,7.0,NNW,8.1,-,N/A,,Clear,330,2012-11-02 08:52:00
2:52 AM,66.9,48.0,51,29.84,6.0,NW,11.5,-,N/A,,Haze,320,2012-11-02 09:52:00
3:52 AM,68.0,46.0,45,29.83,7.0,NNW,13.8,-,N/A,,Clear,330,2012-11-02 10:52:00
4:52 AM,66.0,46.0,48,29.84,7.0,NNW,10.4,-,N/A,,Clear,330,2012-11-02 11:52:00
5:52 AM,64.0,46.9,54,29.85,6.0,NNW,8.1,-,N/A,,Haze,330,2012-11-02 12:52:00
6:52 AM,63.0,46.9,56,29.86,6.0,NNW,6.9,-,N/A,,Haze,340,2012-11-02 13:52:00
7:52 AM,64.0,46.0,52,29.88,6.0,NNW,6.9,-,N/A,,Haze,340,2012-11-02 14:52:00
8:52 AM,68.0,45.0,43,29.90,8.0,NNW,9.2,-,N/A,,Clear,340,2012-11-02 15:52:00
9:52 AM,73.0,43.0,34,29.91,10.0,NNW,8.1,-,N/A,,Clear,330,2012-11-02 16:52:00
10:52 AM,77.0,39.9,26,29.91,10.0,NNW,6.9,-,N/A,,Clear,340,2012-11-02 17:52:00
11:52 AM,81.0,35.1,19,29.89,10.0,North,3.5,-,N/A,,Clear,360,2012-11-02 18:52:00
12:52 PM,84.0,28.9,14,29.86,10.0,Calm,Calm,-,N/A,,Clear,0,2012-11-02 19:52:00
1:52 PM,86.0,37.9,18,29.83,10.0,SSE,6.9,-,N/A,,Clear,150,2012-11-02 20:52:00
2:52 PM,86.0,35.1,16,29.82,10.0,SE,6.9,-,N/A,,Clear,140,2012-11-02 21:52:00
3:52 PM,84.9,36.0,17,29.82,10.0,SE,8.1,-,N/A,,Clear,130,2012-11-02 22:52:00
4:52 PM,82.9,34.0,17,29.81,10.0,SE,5.8,-,N/A,,Clear,140,2012-11-02 23:52:00
5:52 PM,73.9,43.0,33,29.83,10.0,SSE,4.6,-,N/A,,Clear,160,2012-11-03 00:52:00
6:52 PM,66.0,42.1,42,29.84,10.0,WNW,3.5,-,N/A,,Clear,300,2012-11-03 01:52:00
7:52 PM,64.9,42.1,43,29.86,10.0,Calm,Calm,-,N/A,,Clear,0,2012-11-03 02:52:00
8:52 PM,62.1,43.0,50,29.88,10.0,NNW,4.6,-,N/A,,Clear,340,2012-11-03 03:52:00
9:52 PM,62.1,42.1,48,29.89,10.0,North,5.8,-,N/A,,Clear,10,2012-11-03 04:52:00
10:52 PM,57.0,43.0,59,29.90,10.0,North,4.6,-,N/A,,Clear,350,2012-11-03 05:52:00
11:52 PM,54.0,42.1,64,29.90,10.0,NNE,3.5,-,N/A,,Clear,20,2012-11-03 06:52:00